Regional Weather Roundup
Issued by NWS

Home | Current Version | Previous Version | Graphics & Text | Print | Product List | Glossary On
Versions: 1 2 3 4 5 6 7 8 9 10 11 12 13 14 15 16 17 18 19 20 21 22 23 24 25 26 27 28 29 30 31 32 33 34 35 36 37 38 39 40 41 42 43 44 45 46 47 48 49 50
000
ASUS43 KIND 171909
RWRIN

WEATHER ROUNDUP FOR INDIANA
NATIONAL WEATHER SERVICE INDIANAPOLIS IN
200 PM EST WED DEC 17 2014

NOTE: "FAIR" INDICATES FEW OR NO CLOUDS BELOW 12,000 FEET WITH NO
SIGNIFICANT WEATHER AND/OR OBSTRUCTIONS TO VISIBILITY.

* - STATION DOES NOT REPORT WEATHER SUCH AS PRECIPITATION OR FOG.

+ - STATION NOT QUALITY CONTROLLED BY THE NATIONAL WEATHER SERVICE.
    USE DATA WITH CAUTION...ESPECIALLY DEWPOINT AND RELATIVE
    HUMIDITY OBSERVATIONS.

INZ001>003-010>013-019-020-172000-
NORTHWEST INDIANA

CITY           SKY/WX    TMP DP  RH WIND       PRES   REMARKS
GARY /AIRPORT/ CLOUDY    28  18  64 W9G21     30.22F WCI  20
KNOX *+        CLOUDY    26  20  78 W9G16     30.21S WCI  17
LA PORTE +     CLOUDY    28  24  84 W10       30.20F WCI  19
MICHIGAN CITY+ CLOUDY    28  19  69 W8        30.20F WCI  20
MONTICELLO +   CLOUDY    25  21  87 W12G17    30.23S WCI  14
RENSSELAER +   CLOUDY    28  25  86 W10       30.23F WCI  19
VALPARAISO     CLOUDY    26  19  74 W10       30.21F WCI  16

$$

LMZ046-743>745-172000-
SOUTHERN LAKE MICHIGAN

STATION/POSITION TIME  TEMP WIND        PRES
                       AIR  DIR/SP/G
                 (UTC) (F)  (DEG/KT/KT) (MB)

$$

INZ004-005-014>016-021>024-172000-
NORTH CENTRAL INDIANA

CITY           SKY/WX    TMP DP  RH WIND       PRES   REMARKS
ELKHART        CLOUDY    28  19  69 W13       30.17F WCI  18
GOSHEN         CLOUDY    27  22  81 W16       30.16F WCI  15
LOGANSPORT +   CLOUDY    27  21  80 W15G24    30.23S WCI  15
PERU/GRISSOM   CLOUDY    26  25  99 W16       30.20F WCI  13
ROCHESTER +    CLOUDY    28  23  80 W12       30.21S WCI  18
SOUTH BEND     CLOUDY    28  21  75 W13       30.18F WCI  17
WARSAW +       CLOUDY    27  23  86 W12       30.18F FOG     WCI  16

$$

INZ006>009-017-018-025>027-172000-
NORTHEAST INDIANA

CITY           SKY/WX    TMP DP  RH WIND       PRES   REMARKS
ANGOLA *+      CLOUDY    27  21  80 NW12      30.12F WCI  16
AUBURN +       LGT SNOW  30  23  74 W13       30.15F WCI  20
FORT WAYNE     FLURRIES  27  22  81 W20       30.18S WCI  13
HUNTINGTON +   CLOUDY    26  22  86 W14G20    30.18S WCI  14

$$

INZ028-029-035-036-043>045-051>053-172000-
WEST CENTRAL INDIANA

CITY           SKY/WX    TMP DP  RH WIND       PRES   REMARKS
GREENCASTLE +  CLOUDY    27  21  80 W7        30.25F WCI  19
LAFAYETTE      CLOUDY    24  20  84 W13       30.25F WCI  12
TERRE HAUTE    CLOUDY    26  20  77 NW8       30.27F WCI  18

$$

INZ030>032-037>040-046>048-054>057-064-065-172000-
CENTRAL INDIANA

CITY           SKY/WX    TMP DP  RH WIND       PRES   REMARKS
ANDERSON       CLOUDY    25  21  86 W12G17    30.22F WCI  14
CP ATTERBURY + CLOUDY    30  23  74 MISG      30.25S
COLUMBUS       CLOUDY    28  25  86 W9        30.24F WCI  20
FRANKFORT +    CLOUDY    25  25 100 W14       30.24F WCI  13
INDIANAPOLIS   CLOUDY    25  21  85 W13       30.22F WCI  14
-EAGLE CREEK   CLOUDY    25  21  85 NW10      30.22F WCI  15
KOKOMO *+      CLOUDY    25  19  80 W16       30.22S WCI  12
MARION +       CLOUDY    25  24  94 W18       30.21S WCI  11
MT COMFORT *+  CLOUDY    27  23  86 W12       30.22F WCI  16
SHELBYVILLE    CLOUDY    28  22  78 W10       30.22F WCI  19
ZIONSVILLE +   CLOUDY    25  21  84 W13       30.23F WCI  13

$$

INZ033-034-041-042-049-050-058-059-172000-
EAST CENTRAL INDIANA

CITY           SKY/WX    TMP DP  RH WIND       PRES   REMARKS
MUNCIE         CLOUDY    25  22  88 W12       30.20S WCI  14

$$

INZ060-061-067>069-081>083-085>088-172000-
SOUTHWEST INDIANA

CITY           SKY/WX    TMP DP  RH WIND       PRES   REMARKS
EVANSVILLE     PTSUNNY   34  25  69 NW5       30.28F WCI  30
HUNTINGBURG *+ CLOUDY    34  23  64 NW3       30.27F
WASHINGTON +   CLOUDY    31  21  67 W9        30.26F WCI  23

$$

INZ062-063-066-070>080-084-089>092-172000-
SOUTH CENTRAL AND SOUTHEAST INDIANA

CITY           SKY/WX    TMP DP  RH WIND       PRES   REMARKS
BLOOMINGTON    CLOUDY    27  22  81 NW7       30.24F WCI  19
NORTH VERNON + CLOUDY    30  27  86 W7        30.23  WCI  23

$$




USA.gov is the U.S. government's official web portal to all federal, state and local government web resources and services.